Regional Weather Roundup
Issued by NWS Upton, NY

Current Version | Previous Version | Graphics & Text | Print | Product List | Glossary Off
Versions: 1 2 3 4 5 6 7 8 9 10 11 12 13 14 15 16 17 18 19 20 21 22 23 24 25 26 27 28 29 30 31 32 33 34 35 36 37 38 39 40 41 42 43 44 45 46 47 48 49 50

000
ASUS41 KOKX 260608
RWROKX

REGIONAL WEATHER ROUNDUP
NATIONAL WEATHER SERVICE NEW YORK NY
200 AM EDT TUE MAY 26 2015

NOTE: "FAIR" INDICATES FEW OR NO CLOUDS BELOW 12,000 FEET WITH NO
SIGNIFICANT WEATHER AND/OR OBSTRUCTIONS TO VISIBILITY.

NYZ071-072-176-178-NJZ106-104-260700-
NEW YORK CITY METRO AREA


CITY           SKY/WX    TMP DP  RH WIND       PRES   REMARKS
CENTRAL PARK   CLEAR     71  53  52 SW8G18    30.20F
LAGUARDIA APRT PTCLDY    70  52  52 S13       30.18S
KENNEDY INTL   PTCLDY    64  51  62 S12       30.20F
NEWARK/LIBERTY PTCLDY    70  54  56 SW13      30.18F
BRNX BOT. GARD   N/A     70  54  56 W14       30.19R
TETERBORO      CLEAR     70  55  59 S10       30.17S
$$

NYZ177-179-078>081-260700-
LONG ISLAND NEW YORK

CITY           SKY/WX    TMP DP  RH WIND       PRES   REMARKS
FARMINGDALE    CLEAR     63  55  75 SW13      30.20F
ISLIP          CLEAR     62  55  77 SW13      30.19F
SHIRLEY        PTCLDY    62  55  77 SW13      30.22F
WESTHAMPTON    PTCLDY    60  55  83 SW12G22   30.23F
MONTAUK POINT    N/A     61  54  77 SW13G23   30.23F
$$

NYZ052-065-067-260700-
HUDSON VALLEY

CITY           SKY/WX    TMP DP  RH WIND       PRES   REMARKS
WHITE PLAINS   CLEAR     68  57  68 VRB5      30.17F
NEWBURGH       NOT AVBL
MONTGOMERY     CLEAR     69  60  73 SW7       30.15R
POUGHKEEPSIE   PTCLDY    73  58  59 VRB3      30.13F
ALBANY         MOCLDY    75  57  53 S10       30.07S
$$

NJZ001-105-106-008-010-013-015-019>022-104-260700-
NEW JERSEY

CITY           SKY/WX    TMP DP  RH WIND       PRES   REMARKS
NEWARK/LIBERTY PTCLDY    70  54  56 SW13      30.18F
TETERBORO      CLEAR     70  55  59 S10       30.17S
CALDWELL       CLEAR     69  56  62 VRB5      30.17F
MORRISTOWN     CLEAR     70  55  60 CALM      30.18S
SOMERVILLE     CLEAR     66  56  70 S3        30.17S
SUSSEX         CLEAR     68  58  70 SW3       30.18S
ANDOVER          N/A     68  58  70 SW6       30.18S
TRENTON        CLEAR     67  53  61 S9        30.19F
MILLVILLE      CLEAR     65  59  81 VRB3      30.22F
ATLANTIC CITY  CLEAR     64  58  80 S10       30.23F
WRIGHTSTOWN    CLEAR     63  54  73 SW8       30.19F
TOMS RIVER     CLEAR    N/A N/A N/A S7        30.21F
BELMAR         CLEAR     64  52  63 SW9       30.21S
$$

PAZ047>061-062-071-260700-
EASTERN PENNSYLVANIA

CITY           SKY/WX    TMP DP  RH WIND       PRES   REMARKS
PHILADELPHIA   CLEAR     69  53  56 SW8       30.21F
ALLENTOWN      CLEAR     70  58  65 SW10      30.18S
SCRANTON       PTCLDY    71  57  61 SW5       30.17R
$$

CTZ002-004>006-009-010-012-RIZ004-006-007-MAZ004-011-015-260700-
SOUTHERN NEW ENGLAND
 IN CT

CITY           SKY/WX    TMP DP  RH WIND       PRES   REMARKS
BRADLEY INTL   MOCLDY    67  56  67 S12       30.13F
HARTFORD       PTCLDY    67  56  67 S8        30.16S
DANBURY        PTCLDY    67  55  65 S7        30.18F
WTRBRY/OXFORD  PTCLDY    63  55  77 S8        30.20S
BRIDGEPORT     CLEAR     63  54  72 SW10      30.18F
MERIDEN        PTCLDY    65  55  70 S7        30.17F
NEW HAVEN      PTCLDY    60  53  77 S5        30.19F
CHESTER        FAIR      63  54  72 SW8       30.20F
GROTON         PTCLDY    61  53  75 SW10      30.20F
WILLIMANTIC    PTCLDY    66  54  65 S8        30.18F

 IN RI

CITY           SKY/WX    TMP DP  RH WIND       PRES   REMARKS
PROVIDENCE     MOCLDY    66  52  60 S14G22    30.19F
BLOCK ISLAND   MOCLDY    57  52  82 SW17G24   30.22F
WESTERLY       MOCLDY    62  52  69 SW13G21   30.21F

 IN MA

CITY           SKY/WX    TMP DP  RH WIND       PRES   REMARKS
BOSTON         CLOUDY    66  55  67 SW13      30.13F
WORCESTER      MOCLDY    65  54  67 SW17      30.15F
WESTFIELD      NOT AVBL
PROVINCETOWN   CLOUDY    59  54  82 SW17G25   30.18F
NANTUCKET      MOCLDY    59  56  89 SW17      30.25S
$$

ANZ330-335-338-340-345-350-353-355-260700-
COASTAL MARINE OBSERVATIONS


STATION/POSITION TIME  SKY/WX   TEMP    WIND        PRES    VSBY  WAVE
                                AIR SEA DIR/SP/G                  HT/PER
                 (UTC)          (F)     (DEG/KT/KT) (MB)    (MI)  (FT/S)
NY HARB ENTRANCE 0550            60 56  210/ 17/ 21 1021.9          4/ 5
4S FIRE IS       0503               54                N/A           5/ 5
20S FIRE ISLAND  0550            59 56  200/ 16/ 17 1022.9          4/ 6
GREAT SOUTH BAY  0500            61 64  220/ 14/ 19   N/A
23SW MTP         0550            58 53  210/ 16/ 17 1023.3          4/ 6
HUDSON CANYON    NOT AVBL
KINGS POINT      0500            67 60  190/ 11/ 12 1021.5
CENTRAL LI SOUND 0515            61 54  200/ 16/ 17   N/A
EASTERN LI SOUND 0500            59     210/ 17/ 21   N/A
ROBBINS REEF     0500            70     210/ 11/ 14 1021.2
$$


>>>>>>>>>>>>>>>>>>>>>>>>>>>> KEY <<<<<<<<<<<<<<<<<<<<<<<<<<<
>                                                          <
>     SKY/WX - SKY CONDITION/PRESENT WEATHER               <
>     TMP    - TEMPERATURE IN FAHRENHEIT                   <
>     DP     - DEWPOINT IN FAHRENHEIT                      <
>     RH     - RELATIVE HUMIDITY IN PERCENT                <
>     WIND   - DIRECTION AND SPEED IN MPH                  <
>     PRES   - MEAN SEA LEVEL PRESSURE IN INCHES OF HG     <
>     WCI    - WIND CHILL INDEX                            <
>     VSB    - VISIBILITY IN MILES                         <
>     HX     - HEAT INDEX                                  <
>     TC     - TEMPERATURE IN CELSIUS                      <
>     VRB    - VARIABLE WIND DIRECTION                     <
>                                                          <
>>>>>>>>>>>>>>>>>>>>>>>>>>>> KEY <<<<<<<<<<<<<<<<<<<<<<<<<<<





USA.gov is the U.S. government's official web portal to all federal, state and local government web resources and services.